T Black Aviation
T Black Aviation Training School
T Black Aviation Cessna Pilot Center
Visit our pilot shop in person
OR
Click here to shop online now!

We Give All FAA, FCC, and NCATT Written Exams

Accelerated Aviation Academics®

Distance Learning A&P Course Now Available!

Aircraft Electronics Technician (AET) Logo

National Center for Aerospace & Transportation Technologies (NCATT)

One week course

T Black Aviation guarantees that if you fail any of the written tests, after completing our course, you may return to our school, up to ten years from the date of the initial course, for additional training (sit in on the current course) until you receive your designated rating.

CATS Testing Center at T Black Aviation

Current METAR for KPIE

KPIE 311453Z 15006KT 10SM SCT041 BKN095 OVC110 24/23 A3001 RMK AO2 WSHFT 1422 RAB20E50 SLP160 P0024 60024 T02440233 51009

Coming Soon to T Black Aviation